Retour au catalogue

FENGYUN 1C DEB

ActifSSO
NORAD 37911·DEBRIS·🇨🇳 China

Lancé May 10, 1999 depuis Taiyuan Satellite Launch Center

Loading…

Prochains Passages (prochaines 24 heures)

TLE

FraisSource: Space-Track

Époque: Sep 14, 2026, 16:36 UTC

1 37911U 99025ENL 26257.69222301  .00001543  00000-0  10205-2 0  9996
2 37911  99.2896 345.4131 0137899  75.6518 285.9909 13.98584663805655

Suivez FENGYUN 1C DEB en temps réel avec AllMySat

Download on the App Store